This is the latest recevied weather packets stored in our database for station/object VR2OT-10. If no packets are shown the sender has not sent any weather packets the latest 10 day(s).
| Time | Temp. | Humidity | Pressure | Rain* | Wind** | Luminosity | Snow |
|---|---|---|---|---|---|---|---|
| 1788135031 | 26.67° C | 82% | 999.9 hPa | - | 0.89 m/s, 135° | - | - |
| 1788134133 | 26.67° C | 82% | 999.7 hPa | - | 1.34 m/s, 135° | - | - |
| 1788133234 | 26.67° C | 81% | 999.6 hPa | - | 0.45 m/s, 135° | - | - |
| 1788132331 | 26.67° C | 80% | 999.3 hPa | - | 0 m/s | - | - |
| 1788131434 | 26.67° C | 82% | 999.2 hPa | - | 0 m/s | - | - |
| 1788130533 | 26.67° C | 81% | 999 hPa | - | 0 m/s | - | - |
| 1788129632 | 26.67° C | 81% | 998.9 hPa | - | 0.89 m/s, 180° | - | - |
| 1788128733 | 26.67° C | 82% | 998.7 hPa | - | 1.34 m/s, 225° | - | - |
| 1788127833 | 26.67° C | 82% | 998.7 hPa | - | 1.79 m/s, 270° | - | - |
| 1788126931 | 26.67° C | 84% | 998.5 hPa | - | 1.34 m/s, 270° | - | - |
| 1788126034 | 26.67° C | 83% | 998.4 hPa | - | 1.34 m/s, 270° | - | - |
| 1788125133 | 26.67° C | 83% | 998.2 hPa | - | 0.45 m/s, 225° | - | - |
| 1788124231 | 26.67° C | 84% | 998.1 hPa | - | 0.45 m/s, 225° | - | - |
| 1788121531 | 26.67° C | 86% | 998.2 hPa | - | 0.45 m/s, 225° | - | - |
| 1788120634 | 26.67° C | 85% | 998.3 hPa | - | - | - | - |
| 1788119733 | 26.67° C | 84% | 998.4 hPa | - | 0 m/s | - | - |
| 1788118832 | 26.67° C | 85% | 998.3 hPa | - | - | - | - |
| 1788117933 | 26.67° C | 86% | 998.4 hPa | - | 1.34 m/s, 135° | - | - |
| 1788117033 | 26.67° C | 86% | 998.4 hPa | - | 1.79 m/s, 135° | - | - |
| 1788116132 | 26.67° C | 87% | 998.4 hPa | - | 1.34 m/s, 180° | - | - |
| 1788115234 | 26.67° C | 88% | 998.5 hPa | - | 0.89 m/s, 135° | - | - |
| 1788114333 | 26.67° C | 88% | 998.6 hPa | - | 0 m/s | - | - |
| 1788112533 | 26.67° C | 86% | 998.9 hPa | - | 0.45 m/s, 135° | - | - |
| 1788111633 | 26.67° C | 87% | 998.9 hPa | - | 0 m/s | - | - |
| 1788110732 | 26.67° C | 86% | 999 hPa | - | 1.34 m/s, 315° | - | - |
* Rain since midnight (hover to see other rain measurements)
** Current wind speed in m/s (hover to see current wind gust speed)